UAL1340 KEWR-KSFO

Flight info

Callsign UAL1340
Flight time N/A
Altitude 36000
Route ZIMMZ Q42 LEWRP PWE MCK/N0442F380 VOAXA Q136 RUMPS OAL INYOE DYAMD5
Aircraft A319/M-SDE3FGHIRWY/LB1

Departure

Time 2026-04-21 01:23
Airport Newark Liberty International Airport (KEWR)

Arrival

Time N/A
Airport San Francisco International Airport (KSFO)
Time Latitude Longitude Altitude Speed Heading
2026-04-21 01:02 40.69688 -74.17514 23 ft 0 kts 309°
2026-04-21 01:08 40.69686 -74.17510 22 ft 3 kts 309°
2026-04-21 01:09 40.69672 -74.17490 22 ft 4 kts 305°
2026-04-21 01:09 40.69669 -74.17463 24 ft 4 kts 254°
2026-04-21 01:09 40.69670 -74.17441 25 ft 4 kts
2026-04-21 01:09 40.69648 -74.17457 24 ft 3 kts 41°
2026-04-21 01:10 40.69645 -74.17461 23 ft 3 kts 41°
2026-04-21 01:13 40.69646 -74.17460 24 ft 1 kts 41°
2026-04-21 01:14 40.69669 -74.17434 22 ft 8 kts 41°
2026-04-21 01:14 40.69723 -74.17371 23 ft 12 kts 41°
2026-04-21 01:14 40.69794 -74.17290 24 ft 15 kts 41°
2026-04-21 01:14 40.69828 -74.17251 22 ft 16 kts 41°
2026-04-21 01:15 40.69812 -74.17162 22 ft 12 kts 138°
2026-04-21 01:15 40.69743 -74.17090 22 ft 13 kts 149°
2026-04-21 01:16 40.69653 -74.17032 22 ft 15 kts 158°
2026-04-21 01:16 40.69547 -74.16989 22 ft 16 kts 168°
2026-04-21 01:16 40.69450 -74.16975 22 ft 13 kts 175°
2026-04-21 01:16 40.69352 -74.16980 22 ft 15 kts 187°
2026-04-21 01:17 40.69247 -74.17020 22 ft 17 kts 201°
2026-04-21 01:17 40.69139 -74.17087 22 ft 18 kts 205°
2026-04-21 01:17 40.69022 -74.17166 21 ft 20 kts 202°
2026-04-21 01:17 40.68894 -74.17244 22 ft 21 kts 211°
2026-04-21 01:18 40.68761 -74.17328 23 ft 22 kts 205°
2026-04-21 01:18 40.68623 -74.17416 24 ft 23 kts 206°
2026-04-21 01:18 40.68477 -74.17508 23 ft 24 kts 206°
2026-04-21 01:18 40.68327 -74.17604 22 ft 25 kts 206°
2026-04-21 01:19 40.68168 -74.17706 22 ft 26 kts 206°
2026-04-21 01:19 40.68004 -74.17810 22 ft 27 kts 204°
2026-04-21 01:19 40.67836 -74.17917 22 ft 27 kts 206°
2026-04-21 01:19 40.67687 -74.18011 22 ft 20 kts 206°
2026-04-21 01:20 40.67602 -74.18037 22 ft 5 kts 157°
2026-04-21 01:20 40.67601 -74.18036 22 ft 0 kts 155°
2026-04-21 01:21 40.67599 -74.18035 22 ft 0 kts 155°
2026-04-21 01:21 40.67572 -74.17992 22 ft 11 kts 114°
2026-04-21 01:22 40.67602 -74.17905 22 ft 13 kts 25°
2026-04-21 01:22 40.67608 -74.17902 22 ft 0 kts 24°
2026-04-21 01:22 40.67648 -74.17876 22 ft 28 kts 25°
2026-04-21 01:22 40.68058 -74.17616 21 ft 100 kts 25°
2026-04-21 01:23 40.68874 -74.17100 32 ft 158 kts 23°
2026-04-21 01:23 40.69885 -74.16442 587 ft 164 kts 24°
2026-04-21 01:23 40.70835 -74.15606 1315 ft 166 kts 37°
2026-04-21 01:23 40.71684 -74.14561 1967 ft 170 kts 40°
2026-04-21 01:24 40.72579 -74.13409 2245 ft 191 kts 40°
2026-04-21 01:24 40.73595 -74.12105 2516 ft 216 kts 40°
2026-04-21 01:24 40.74721 -74.10685 2963 ft 237 kts 37°
2026-04-21 01:24 40.76206 -74.09762 3750 ft 239 kts 10°
2026-04-21 01:25 40.77860 -74.09453 4688 ft 242 kts
2026-04-21 01:25 40.79555 -74.09463 5588 ft 246 kts 356°
2026-04-21 01:25 40.81202 -74.10071 6421 ft 251 kts 328°
2026-04-21 01:25 40.82423 -74.11715 7239 ft 256 kts 299°
2026-04-21 01:26 40.82881 -74.13993 8070 ft 263 kts 271°
2026-04-21 01:26 40.82437 -74.16347 8920 ft 271 kts 247°
2026-04-21 01:26 40.81423 -74.18442 9719 ft 276 kts 239°
2026-04-21 01:26 40.80546 -74.20639 10571 ft 268 kts 253°
2026-04-21 01:27 40.80243 -74.23124 10895 ft 285 kts 271°
2026-04-21 01:27 40.80253 -74.25844 11151 ft 306 kts 272°
2026-04-21 01:27 40.80270 -74.28683 11764 ft 312 kts 272°
2026-04-21 01:27 40.80288 -74.31565 12506 ft 315 kts 271°
2026-04-21 01:28 40.80302 -74.34476 13246 ft 318 kts 271°
2026-04-21 01:28 40.80313 -74.37407 13977 ft 321 kts 271°
2026-04-21 01:28 40.80321 -74.40368 14636 ft 324 kts 271°
2026-04-21 01:28 40.80328 -74.43355 15263 ft 327 kts 271°
2026-04-21 01:29 40.80334 -74.46371 15880 ft 330 kts 272°
2026-04-21 01:29 40.80340 -74.49371 16500 ft 333 kts 272°
2026-04-21 01:29 40.80347 -74.52447 16946 ft 336 kts 272°
2026-04-21 01:29 40.80356 -74.55529 17061 ft 338 kts 272°
2026-04-21 01:30 40.80365 -74.58639 17636 ft 340 kts 272°
2026-04-21 01:30 40.80373 -74.61764 18274 ft 342 kts 272°
2026-04-21 01:30 40.80378 -74.64914 18861 ft 345 kts 272°
2026-04-21 01:30 40.80379 -74.68091 19401 ft 347 kts 273°
2026-04-21 01:31 40.80377 -74.71286 19958 ft 349 kts 273°
2026-04-21 01:31 40.80378 -74.74504 20501 ft 352 kts 274°
2026-04-21 01:31 40.80377 -74.77744 21046 ft 355 kts 274°
2026-04-21 01:31 40.80375 -74.80966 21563 ft 357 kts 274°
2026-04-21 01:32 40.80370 -74.84255 22096 ft 360 kts 274°
2026-04-21 01:32 40.80366 -74.87565 22619 ft 362 kts 275°
2026-04-21 01:32 40.80364 -74.90903 23122 ft 365 kts 275°
2026-04-21 01:32 40.80360 -74.94263 23619 ft 367 kts 275°
2026-04-21 01:33 40.80355 -74.97647 24064 ft 370 kts 276°
2026-04-21 01:33 40.80345 -75.01054 24449 ft 373 kts 276°
2026-04-21 01:33 40.80332 -75.04486 24848 ft 375 kts 276°
2026-04-21 01:33 40.80321 -75.07935 25240 ft 377 kts 276°
2026-04-21 01:34 40.80296 -75.11368 25609 ft 381 kts 274°
2026-04-21 01:34 40.79951 -75.14880 25968 ft 391 kts 266°
2026-04-21 01:34 40.79431 -75.18413 26326 ft 393 kts 266°
2026-04-21 01:34 40.78913 -75.21967 26686 ft 396 kts 267°
2026-04-21 01:35 40.78396 -75.25548 27054 ft 398 kts 267°
2026-04-21 01:35 40.77875 -75.29142 27405 ft 400 kts 267°
2026-04-21 01:35 40.77349 -75.32760 27761 ft 403 kts 267°
2026-04-21 01:35 40.76797 -75.36401 28110 ft 408 kts 264°
2026-04-21 01:36 40.75908 -75.39953 28445 ft 421 kts 255°
2026-04-21 01:36 40.74624 -75.43466 28775 ft 427 kts 252°
2026-04-21 01:36 40.73302 -75.46980 29095 ft 429 kts 252°
2026-04-21 01:36 40.71974 -75.50517 29431 ft 431 kts 252°
2026-04-21 01:37 40.70642 -75.54071 29738 ft 434 kts 252°
2026-04-21 01:37 40.69307 -75.57648 30054 ft 436 kts 253°
2026-04-21 01:37 40.67968 -75.61237 30368 ft 438 kts 253°
2026-04-21 01:37 40.66619 -75.64847 30645 ft 440 kts 252°
2026-04-21 01:38 40.65281 -75.68422 30874 ft 442 kts 252°
2026-04-21 01:38 40.63915 -75.72056 31111 ft 444 kts 252°
2026-04-21 01:38 40.62538 -75.75704 31354 ft 445 kts 252°
2026-04-21 01:38 40.61160 -75.79346 31684 ft 444 kts 252°
2026-04-21 01:39 40.59781 -75.82985 32015 ft 444 kts 252°
2026-04-21 01:39 40.58407 -75.86611 32342 ft 443 kts 252°
2026-04-21 01:39 40.57032 -75.90231 32674 ft 442 kts 251°
2026-04-21 01:39 40.55656 -75.93846 33001 ft 442 kts 251°
2026-04-21 01:40 40.54281 -75.97459 33323 ft 441 kts 251°
2026-04-21 01:40 40.52923 -76.01019 33637 ft 441 kts 251°
2026-04-21 01:40 40.51547 -76.04620 33964 ft 441 kts 251°
2026-04-21 01:40 40.50171 -76.08211 34291 ft 440 kts 251°
2026-04-21 01:41 40.48794 -76.11805 34560 ft 440 kts 251°
2026-04-21 01:41 40.47422 -76.15390 34824 ft 439 kts 251°
2026-04-21 01:41 40.46051 -76.18972 35080 ft 439 kts 251°
2026-04-21 01:41 40.44681 -76.22548 35330 ft 438 kts 251°
2026-04-21 01:42 40.43313 -76.26118 35579 ft 437 kts 250°
2026-04-21 01:42 40.41945 -76.29679 35810 ft 437 kts 250°
2026-04-21 01:42 40.40594 -76.33186 36049 ft 436 kts 250°
2026-04-21 01:42 40.39225 -76.36734 36258 ft 436 kts 250°
2026-04-21 01:43 40.36479 -76.43821 36340 ft 435 kts 250°
2026-04-21 01:43 40.34126 -76.51018 36338 ft 423 kts 262°
2026-04-21 01:44 40.32965 -76.58515 36339 ft 419 kts 265°
2026-04-21 01:44 40.31857 -76.65961 36340 ft 419 kts 265°
2026-04-21 01:45 40.30727 -76.73446 36363 ft 419 kts 265°
2026-04-21 01:45 40.29592 -76.80925 36367 ft 419 kts 265°
2026-04-21 01:46 40.28451 -76.88404 36372 ft 418 kts 265°
2026-04-21 01:46 40.27315 -76.95826 36363 ft 418 kts 265°
2026-04-21 01:47 40.26173 -77.03285 36367 ft 418 kts 265°
2026-04-21 01:47 40.25025 -77.10745 36365 ft 418 kts 266°
2026-04-21 01:48 40.23873 -77.18190 36368 ft 417 kts 265°
2026-04-21 01:48 40.22723 -77.25571 36367 ft 417 kts 265°
2026-04-21 01:49 40.21557 -77.32992 36366 ft 417 kts 265°
2026-04-21 01:49 40.20392 -77.40420 36363 ft 416 kts 266°
2026-04-21 01:50 40.19231 -77.47834 36367 ft 416 kts 265°
2026-04-21 01:50 40.18064 -77.55196 36365 ft 416 kts 265°
2026-04-21 01:51 40.16885 -77.62604 36366 ft 416 kts 265°
2026-04-21 01:51 40.15703 -77.70013 36360 ft 417 kts 265°
2026-04-21 01:52 40.13909 -77.81125 36362 ft 416 kts 266°
2026-04-21 01:53 40.13585 -77.88469 36360 ft 405 kts 277°
2026-04-21 01:53 40.13685 -77.95825 36357 ft 405 kts 277°
2026-04-21 01:54 40.13751 -78.03197 36347 ft 406 kts 277°
2026-04-21 01:54 40.13812 -78.10566 36341 ft 406 kts 277°
2026-04-21 01:55 40.13879 -78.17887 36341 ft 406 kts 277°
2026-04-21 01:55 40.13950 -78.25263 36336 ft 406 kts 277°
2026-04-21 01:56 40.14020 -78.32634 36332 ft 406 kts 277°
2026-04-21 01:56 40.14071 -78.40008 36356 ft 406 kts 277°
2026-04-21 01:57 40.14124 -78.47384 36355 ft 406 kts 277°
2026-04-21 01:57 40.14175 -78.54707 36360 ft 406 kts 277°
2026-04-21 01:58 40.14209 -78.62078 36361 ft 406 kts 277°
2026-04-21 01:58 40.14242 -78.69448 36364 ft 405 kts 277°
2026-04-21 01:59 40.14278 -78.76814 36330 ft 405 kts 277°
2026-04-21 01:59 40.14305 -78.84130 36328 ft 405 kts 277°
2026-04-21 02:00 40.14317 -78.91500 36331 ft 405 kts 277°
2026-04-21 02:00 40.14336 -78.98861 36344 ft 405 kts 277°
2026-04-21 02:01 40.14356 -79.06221 36349 ft 405 kts 277°
2026-04-21 02:01 40.14371 -79.13536 36380 ft 405 kts 277°
2026-04-21 02:02 40.14437 -79.20892 36380 ft 404 kts 278°
2026-04-21 02:02 40.14633 -79.28226 36380 ft 404 kts 278°
2026-04-21 02:03 40.14843 -79.35558 36377 ft 404 kts 278°
2026-04-21 02:03 40.15014 -79.42901 36379 ft 404 kts 278°
2026-04-21 02:04 40.15179 -79.50194 36378 ft 404 kts 278°
2026-04-21 02:04 40.15326 -79.57543 36375 ft 404 kts 278°
2026-04-21 02:05 40.15483 -79.64890 36369 ft 404 kts 278°
2026-04-21 02:05 40.15634 -79.72231 36374 ft 404 kts 278°
2026-04-21 02:06 40.15766 -79.79532 36381 ft 404 kts 278°
2026-04-21 02:06 40.15898 -79.86876 36371 ft 404 kts 278°
2026-04-21 02:07 40.16040 -79.94219 36368 ft 404 kts 278°
2026-04-21 02:07 40.16167 -80.01565 36371 ft 404 kts 278°
2026-04-21 02:08 40.16286 -80.08913 36391 ft 404 kts 278°
2026-04-21 02:08 40.16405 -80.16210 36390 ft 404 kts 278°
2026-04-21 02:09 40.16520 -80.23561 36390 ft 404 kts 278°
2026-04-21 02:09 40.16635 -80.30906 36390 ft 404 kts 278°
2026-04-21 02:10 40.16736 -80.38257 36387 ft 404 kts 277°
2026-04-21 02:10 40.16835 -80.45558 36390 ft 404 kts 278°
2026-04-21 02:11 40.16933 -80.52905 36351 ft 404 kts 277°
2026-04-21 02:11 40.17022 -80.60252 36351 ft 404 kts 277°
2026-04-21 02:12 40.17106 -80.67600 36350 ft 404 kts 277°
2026-04-21 02:12 40.17192 -80.74946 36352 ft 404 kts 277°
2026-04-21 02:13 40.17277 -80.82235 36359 ft 404 kts 277°
2026-04-21 02:13 40.17351 -80.89578 36372 ft 404 kts 277°
2026-04-21 02:14 40.17418 -80.96920 36374 ft 404 kts 277°
2026-04-21 02:14 40.17407 -81.04272 36384 ft 405 kts 276°
2026-04-21 02:15 40.17302 -81.11584 36392 ft 405 kts 276°
2026-04-21 02:15 40.17202 -81.18942 36391 ft 405 kts 276°
2026-04-21 02:16 40.17117 -81.26300 36387 ft 405 kts 276°
2026-04-21 02:16 40.17039 -81.33651 36381 ft 404 kts 276°
2026-04-21 02:17 40.16956 -81.40955 36378 ft 404 kts 276°
2026-04-21 02:17 40.16861 -81.48303 36380 ft 404 kts 276°
2026-04-21 02:18 40.16763 -81.55653 36374 ft 404 kts 276°
2026-04-21 02:18 40.16663 -81.62993 36373 ft 404 kts 277°
2026-04-21 02:19 40.16797 -81.70239 36373 ft 401 kts 280°
2026-04-21 02:19 40.17128 -81.77509 36365 ft 400 kts 280°
2026-04-21 02:20 40.17435 -81.84771 36363 ft 400 kts 279°
2026-04-21 02:20 40.17687 -81.92048 36362 ft 401 kts 279°
2026-04-21 02:21 40.17906 -81.99334 36360 ft 401 kts 279°
2026-04-21 02:21 40.18128 -82.06618 36362 ft 401 kts 279°
2026-04-21 02:22 40.18357 -82.13852 36360 ft 401 kts 279°
2026-04-21 02:22 40.18581 -82.21149 36359 ft 402 kts 279°
2026-04-21 02:23 40.18795 -82.28450 36355 ft 402 kts 279°
2026-04-21 02:23 40.19002 -82.35756 36352 ft 402 kts 279°
2026-04-21 02:24 40.19201 -82.43013 36349 ft 402 kts 279°
2026-04-21 02:24 40.19404 -82.50297 36350 ft 403 kts 279°
2026-04-21 02:25 40.19605 -82.57610 36352 ft 403 kts 279°
2026-04-21 02:25 40.19803 -82.64929 36350 ft 403 kts 279°
2026-04-21 02:26 40.19988 -82.72211 36349 ft 403 kts 279°
2026-04-21 02:26 40.20168 -82.79542 36352 ft 403 kts 279°
2026-04-21 02:27 40.20351 -82.86866 36350 ft 403 kts 279°
2026-04-21 02:27 40.20533 -82.94187 36345 ft 403 kts 279°
2026-04-21 02:28 40.20703 -83.01505 36342 ft 403 kts 279°
2026-04-21 02:28 40.20863 -83.08782 36344 ft 403 kts 279°
2026-04-21 02:29 40.21022 -83.16109 36340 ft 403 kts 279°
2026-04-21 02:29 40.21178 -83.23428 36333 ft 403 kts 279°
2026-04-21 02:30 40.21333 -83.30750 36336 ft 403 kts 279°
2026-04-21 02:30 40.21485 -83.38071 36335 ft 403 kts 278°
2026-04-21 02:31 40.21623 -83.45348 36335 ft 403 kts 278°
2026-04-21 02:31 40.21756 -83.52666 36342 ft 402 kts 278°
2026-04-21 02:32 40.21893 -83.59987 36346 ft 402 kts 278°
2026-04-21 02:32 40.22025 -83.67303 36346 ft 402 kts 278°
2026-04-21 02:33 40.22148 -83.74565 36340 ft 402 kts 278°
2026-04-21 02:33 40.22266 -83.81878 36334 ft 402 kts 278°
2026-04-21 02:34 40.22382 -83.89192 36335 ft 402 kts 278°
2026-04-21 02:34 40.22490 -83.96506 36335 ft 402 kts 278°
2026-04-21 02:35 40.22600 -84.03775 36335 ft 402 kts 278°
2026-04-21 02:35 40.22702 -84.11092 36332 ft 402 kts 278°
2026-04-21 02:36 40.22796 -84.18414 36330 ft 403 kts 278°
2026-04-21 02:36 40.22889 -84.25739 36329 ft 403 kts 278°
2026-04-21 02:37 40.22980 -84.33022 36327 ft 403 kts 278°
2026-04-21 02:37 40.23063 -84.40350 36323 ft 403 kts 278°
2026-04-21 02:38 40.23136 -84.47668 36322 ft 402 kts 278°
2026-04-21 02:38 40.23212 -84.54996 36322 ft 402 kts 278°
2026-04-21 02:39 40.23279 -84.62271 36320 ft 402 kts 278°
2026-04-21 02:39 40.23346 -84.69587 36321 ft 402 kts 278°
2026-04-21 02:40 40.23408 -84.76902 36319 ft 402 kts 277°
2026-04-21 02:40 40.23461 -84.84214 36317 ft 402 kts 277°
2026-04-21 02:41 40.23507 -84.91479 36314 ft 402 kts 277°
2026-04-21 02:41 40.23556 -84.98787 36313 ft 402 kts 277°
2026-04-21 02:42 40.23596 -85.06101 36311 ft 402 kts 277°
2026-04-21 02:42 40.23633 -85.13404 36308 ft 401 kts 277°
2026-04-21 02:43 40.23664 -85.20712 36305 ft 401 kts 277°
2026-04-21 02:43 40.23687 -85.27965 36305 ft 401 kts 277°
2026-04-21 02:44 40.23709 -85.35261 36302 ft 401 kts 277°
2026-04-21 02:44 40.23760 -85.42540 36301 ft 399 kts 278°
2026-04-21 02:45 40.24005 -85.49781 36303 ft 398 kts 279°
2026-04-21 02:45 40.24309 -85.56951 36305 ft 397 kts 279°
2026-04-21 02:46 40.24580 -85.64174 36295 ft 397 kts 279°
2026-04-21 02:46 40.24822 -85.71392 36298 ft 397 kts 279°
2026-04-21 02:47 40.25050 -85.78614 36303 ft 397 kts 279°
2026-04-21 02:47 40.25276 -85.85822 36087 ft 396 kts 279°
2026-04-21 02:48 40.25501 -85.92975 36086 ft 396 kts 279°
2026-04-21 02:48 40.25724 -86.00174 36109 ft 396 kts 279°
2026-04-21 02:49 40.25939 -86.07370 36144 ft 396 kts 279°
2026-04-21 02:49 40.26043 -86.10972 36294 ft 395 kts 279°
2026-04-21 02:49 40.26145 -86.14564 36290 ft 395 kts 279°
2026-04-21 02:50 40.26347 -86.21747 36280 ft 395 kts 279°
2026-04-21 02:50 40.26553 -86.28886 36265 ft 395 kts 279°
2026-04-21 02:51 40.26754 -86.36069 36259 ft 395 kts 278°
2026-04-21 02:51 40.26943 -86.43261 36256 ft 395 kts 278°
2026-04-21 02:52 40.27136 -86.50443 36254 ft 395 kts 278°
2026-04-21 02:52 40.27321 -86.57582 36255 ft 395 kts 278°
2026-04-21 02:53 40.27491 -86.64771 36254 ft 395 kts 278°
2026-04-21 02:53 40.27666 -86.71956 36255 ft 395 kts 278°
2026-04-21 02:54 40.27840 -86.79143 36259 ft 395 kts 278°
2026-04-21 02:54 40.28009 -86.86329 36259 ft 395 kts 278°
2026-04-21 02:55 40.28169 -86.93465 36261 ft 394 kts 278°
2026-04-21 02:55 40.28326 -87.00641 36262 ft 394 kts 278°
2026-04-21 02:56 40.28476 -87.07806 36266 ft 394 kts 278°
2026-04-21 02:56 40.28700 -87.18548 36272 ft 393 kts 278°
2026-04-21 02:57 40.28838 -87.25659 36276 ft 393 kts 278°
2026-04-21 02:57 40.28975 -87.32800 36278 ft 392 kts 278°
2026-04-21 02:58 40.29108 -87.39936 36279 ft 391 kts 278°
2026-04-21 02:58 40.29227 -87.47056 36281 ft 391 kts 278°
2026-04-21 02:59 40.29343 -87.54111 36281 ft 390 kts 278°
2026-04-21 02:59 40.29385 -87.61232 36283 ft 391 kts 276°
2026-04-21 03:00 40.29286 -87.68357 36282 ft 391 kts 276°
2026-04-21 03:00 40.29170 -87.75482 36281 ft 391 kts 276°
2026-04-21 03:01 40.29077 -87.82545 36279 ft 390 kts 276°
2026-04-21 03:01 40.28995 -87.89648 36262 ft 390 kts 276°
2026-04-21 03:02 40.28907 -87.96741 36259 ft 389 kts 276°
2026-04-21 03:02 40.28808 -88.03820 36252 ft 388 kts 276°
2026-04-21 03:03 40.28703 -88.10890 36250 ft 388 kts 276°
2026-04-21 03:03 40.28596 -88.17904 36237 ft 388 kts 276°
2026-04-21 03:04 40.28495 -88.24962 36245 ft 388 kts 276°
2026-04-21 03:04 40.28382 -88.32021 36235 ft 388 kts 275°
2026-04-21 03:05 40.28264 -88.39076 36239 ft 387 kts 276°
2026-04-21 03:05 40.28147 -88.46126 36245 ft 387 kts 275°
2026-04-21 03:06 40.28022 -88.53124 36236 ft 387 kts 275°
2026-04-21 03:06 40.27885 -88.60168 36228 ft 387 kts 275°
2026-04-21 03:07 40.27754 -88.67215 36221 ft 387 kts 275°
2026-04-21 03:07 40.27617 -88.74266 36218 ft 387 kts 275°
2026-04-21 03:08 40.27473 -88.81269 36215 ft 388 kts 275°
2026-04-21 03:08 40.27327 -88.88236 36213 ft 388 kts 275°
2026-04-21 03:09 40.27182 -88.95293 36213 ft 388 kts 275°
2026-04-21 03:09 40.27033 -89.02192 36208 ft 388 kts 275°
2026-04-21 03:10 40.26865 -89.09321 36207 ft 388 kts 275°
2026-04-21 03:10 40.26693 -89.16389 36208 ft 388 kts 275°
2026-04-21 03:11 40.26523 -89.23455 36207 ft 388 kts 274°
2026-04-21 03:11 40.26353 -89.30475 36206 ft 388 kts 274°
2026-04-21 03:12 40.26180 -89.37546 36207 ft 389 kts 274°
2026-04-21 03:12 40.25998 -89.44622 36208 ft 389 kts 274°
2026-04-21 03:13 40.25813 -89.51704 36208 ft 389 kts 274°
2026-04-21 03:13 40.25650 -89.57586 36205 ft 389 kts 274°
2026-04-21 03:14 40.25423 -89.65815 36200 ft 389 kts 274°
2026-04-21 03:14 40.25225 -89.72891 36190 ft 389 kts 274°
2026-04-21 03:15 40.25019 -89.79970 36187 ft 389 kts 274°
2026-04-21 03:15 40.24847 -89.85856 36188 ft 389 kts 274°
2026-04-21 03:16 40.24598 -89.94089 36185 ft 389 kts 274°
2026-04-21 03:16 40.24416 -89.99971 36181 ft 389 kts 274°
2026-04-21 03:17 40.24199 -90.07057 36180 ft 389 kts 274°
2026-04-21 03:17 40.23979 -90.14138 36180 ft 389 kts 273°
2026-04-21 03:18 40.23716 -90.22371 36175 ft 390 kts 273°
2026-04-21 03:18 40.23475 -90.29454 36169 ft 389 kts 273°
2026-04-21 03:19 40.23278 -90.35338 36174 ft 389 kts 273°
2026-04-21 03:19 40.23037 -90.42420 36173 ft 389 kts 273°
2026-04-21 03:20 40.22753 -90.50648 36169 ft 390 kts 273°
2026-04-21 03:20 40.22541 -90.56587 36164 ft 390 kts 273°
2026-04-21 03:21 40.22285 -90.63631 36166 ft 390 kts 273°
2026-04-21 03:21 40.22021 -90.70713 36165 ft 390 kts 272°
2026-04-21 03:22 40.21754 -90.77799 36160 ft 390 kts 272°
2026-04-21 03:22 40.21488 -90.84884 36151 ft 390 kts 272°
2026-04-21 03:23 40.21217 -90.91921 36152 ft 390 kts 272°
2026-04-21 03:23 40.20947 -90.99000 36145 ft 390 kts 272°
2026-04-21 03:24 40.20663 -91.06083 36143 ft 390 kts 272°
2026-04-21 03:24 40.20372 -91.13166 36141 ft 390 kts 272°
2026-04-21 03:25 40.20080 -91.20211 36141 ft 391 kts 272°
2026-04-21 03:25 40.19784 -91.27310 36137 ft 391 kts 272°
2026-04-21 03:26 40.19486 -91.34413 36128 ft 391 kts 272°
2026-04-21 03:26 40.19184 -91.41518 36129 ft 392 kts 271°
2026-04-21 03:27 40.18876 -91.48584 36136 ft 392 kts 271°
2026-04-21 03:27 40.18564 -91.55705 36129 ft 392 kts 271°
2026-04-21 03:28 40.18246 -91.62822 36132 ft 392 kts 271°
2026-04-21 03:28 40.17923 -91.69954 36134 ft 393 kts 271°
2026-04-21 03:29 40.17594 -91.77035 36142 ft 393 kts 271°
2026-04-21 03:29 40.17263 -91.84163 36136 ft 393 kts 271°
2026-04-21 03:30 40.16929 -91.91300 36135 ft 393 kts 271°
2026-04-21 03:30 40.16589 -91.98434 36135 ft 393 kts 271°
2026-04-21 03:31 40.16239 -92.05572 36125 ft 393 kts 271°
2026-04-21 03:31 40.15892 -92.12653 36124 ft 393 kts 270°
2026-04-21 03:32 40.15538 -92.19783 36126 ft 393 kts 270°
2026-04-21 03:32 40.15176 -92.26919 36125 ft 393 kts 270°
2026-04-21 03:33 40.14811 -92.34051 36122 ft 394 kts 270°
2026-04-21 03:33 40.14448 -92.41197 36124 ft 394 kts 270°
2026-04-21 03:34 40.14082 -92.48292 36126 ft 394 kts 270°
2026-04-21 03:34 40.13700 -92.55430 36127 ft 395 kts 270°
2026-04-21 03:35 40.13609 -92.62563 36128 ft 392 kts 276°
2026-04-21 03:35 40.13851 -92.69684 36131 ft 392 kts 276°
2026-04-21 03:36 40.14086 -92.76749 36133 ft 392 kts 275°
2026-04-21 03:36 40.14313 -92.83868 36126 ft 392 kts 275°
2026-04-21 03:37 40.14535 -92.90986 36128 ft 392 kts 275°
2026-04-21 03:37 40.14749 -92.98104 36124 ft 392 kts 275°
2026-04-21 03:38 40.14960 -93.05171 36117 ft 392 kts 275°
2026-04-21 03:38 40.15174 -93.12289 36111 ft 392 kts 275°
2026-04-21 03:39 40.15381 -93.19403 36109 ft 392 kts 275°
2026-04-21 03:39 40.15583 -93.26524 36106 ft 392 kts 275°
2026-04-21 03:40 40.15774 -93.33597 36104 ft 392 kts 274°
2026-04-21 03:40 40.15956 -93.40721 36106 ft 392 kts 274°
2026-04-21 03:41 40.16143 -93.47847 36104 ft 392 kts 274°
2026-04-21 03:41 40.16331 -93.54977 36100 ft 392 kts 274°
2026-04-21 03:42 40.16509 -93.62061 36101 ft 393 kts 274°
2026-04-21 03:42 40.16683 -93.69192 36095 ft 393 kts 274°
2026-04-21 03:43 40.16851 -93.76330 36095 ft 393 kts 274°
2026-04-21 03:43 40.17016 -93.83468 36097 ft 393 kts 274°
2026-04-21 03:44 40.17174 -93.90563 36090 ft 393 kts 274°
2026-04-21 03:44 40.17333 -93.97701 36090 ft 393 kts 274°
2026-04-21 03:45 40.17489 -94.04848 36085 ft 393 kts 274°
2026-04-21 03:45 40.17637 -94.11997 36076 ft 393 kts 273°
2026-04-21 03:46 40.17783 -94.19098 36074 ft 393 kts 273°
2026-04-21 03:46 40.17927 -94.26250 36063 ft 394 kts 273°
2026-04-21 03:47 40.18055 -94.33410 36073 ft 394 kts 273°
2026-04-21 03:47 40.18185 -94.40572 36072 ft 394 kts 273°
2026-04-21 03:48 40.18319 -94.47734 36070 ft 394 kts 273°
2026-04-21 03:48 40.18439 -94.54851 36070 ft 394 kts 273°
2026-04-21 03:49 40.18551 -94.62013 36067 ft 394 kts 272°
2026-04-21 03:49 40.18662 -94.69188 36064 ft 395 kts 272°
2026-04-21 03:50 40.18774 -94.76367 36066 ft 395 kts 272°
2026-04-21 03:50 40.18880 -94.83551 36065 ft 395 kts 272°
2026-04-21 03:51 40.18977 -94.90682 36063 ft 395 kts 272°
2026-04-21 03:51 40.19069 -94.97867 36061 ft 395 kts 272°
2026-04-21 03:52 40.19162 -95.05056 36061 ft 395 kts 272°
2026-04-21 03:52 40.19251 -95.12247 36059 ft 395 kts 272°
2026-04-21 03:53 40.19327 -95.19391 36056 ft 396 kts 272°
2026-04-21 03:53 40.19410 -95.26590 36058 ft 396 kts 272°
2026-04-21 03:54 40.19488 -95.33793 36060 ft 396 kts 272°
2026-04-21 03:54 40.19561 -95.41002 36062 ft 396 kts 272°
2026-04-21 03:55 40.19629 -95.48163 36066 ft 397 kts 272°
2026-04-21 03:55 40.19685 -95.55389 36068 ft 397 kts 271°
2026-04-21 03:56 40.19738 -95.62623 36069 ft 398 kts 271°
2026-04-21 03:56 40.19791 -95.69857 36067 ft 398 kts 271°
2026-04-21 03:57 40.19835 -95.77050 36062 ft 398 kts 271°
2026-04-21 03:57 40.19876 -95.84285 36053 ft 398 kts 271°
2026-04-21 03:58 40.19915 -95.91518 36043 ft 398 kts 271°
2026-04-21 03:58 40.19949 -95.98754 36034 ft 398 kts 271°
2026-04-21 03:59 40.19985 -96.06001 36030 ft 399 kts 271°
2026-04-21 04:00 40.20016 -96.16834 36026 ft 399 kts 271°
2026-04-21 04:00 40.20052 -96.24084 36025 ft 399 kts 272°
2026-04-21 04:01 40.20196 -96.31338 36019 ft 399 kts 272°
2026-04-21 04:01 40.20363 -96.38547 36019 ft 399 kts 272°
2026-04-21 04:02 40.20503 -96.45807 36018 ft 399 kts 272°
2026-04-21 04:02 40.20620 -96.53066 36011 ft 399 kts 272°
2026-04-21 04:03 40.20734 -96.60332 36008 ft 400 kts 272°
2026-04-21 04:03 40.20850 -96.67597 36012 ft 400 kts 272°
2026-04-21 04:04 40.20967 -96.74822 36014 ft 400 kts 272°
2026-04-21 04:04 40.21076 -96.82096 36013 ft 400 kts 272°
2026-04-21 04:05 40.21181 -96.89371 36009 ft 400 kts 271°
2026-04-21 04:05 40.21275 -96.96651 36020 ft 401 kts 272°
2026-04-21 04:06 40.21366 -97.03891 36015 ft 401 kts 272°
2026-04-21 04:06 40.21461 -97.11186 36005 ft 401 kts 272°
2026-04-21 04:07 40.21552 -97.18482 36002 ft 401 kts 272°
2026-04-21 04:07 40.21630 -97.25771 36000 ft 401 kts 271°
2026-04-21 04:08 40.21698 -97.33066 36008 ft 401 kts 271°
2026-04-21 04:08 40.21757 -97.40307 36007 ft 401 kts 271°
2026-04-21 04:09 40.21827 -97.47607 36015 ft 401 kts 272°
2026-04-21 04:09 40.21899 -97.54910 36017 ft 402 kts 272°
2026-04-21 04:10 40.21958 -97.62218 36021 ft 402 kts 272°
2026-04-21 04:10 40.22008 -97.69467 36015 ft 401 kts 272°
2026-04-21 04:11 40.22055 -97.76768 36012 ft 401 kts 272°
2026-04-21 04:11 40.22100 -97.84068 36001 ft 401 kts 272°
2026-04-21 04:12 40.22142 -97.91362 35997 ft 401 kts 272°
2026-04-21 04:12 40.22170 -97.98608 35984 ft 401 kts 272°
2026-04-21 04:13 40.22196 -98.05902 35982 ft 401 kts 272°
2026-04-21 04:13 40.22222 -98.13198 35974 ft 401 kts 272°
2026-04-21 04:14 40.22249 -98.20487 35979 ft 401 kts 272°
2026-04-21 04:14 40.22268 -98.27783 35977 ft 401 kts 272°
2026-04-21 04:15 40.22277 -98.35022 35977 ft 401 kts 272°
2026-04-21 04:15 40.22280 -98.42316 35973 ft 401 kts 272°
2026-04-21 04:16 40.22281 -98.49603 35977 ft 400 kts 272°
2026-04-21 04:16 40.22281 -98.56886 35969 ft 400 kts 272°
2026-04-21 04:17 40.22275 -98.64118 35966 ft 400 kts 272°
2026-04-21 04:17 40.22262 -98.71391 35955 ft 400 kts 272°
2026-04-21 04:18 40.22246 -98.78666 35958 ft 400 kts 272°
2026-04-21 04:18 40.22224 -98.85947 35952 ft 400 kts 272°
2026-04-21 04:19 40.22200 -98.93234 35947 ft 400 kts 272°
2026-04-21 04:19 40.22167 -99.00468 35950 ft 400 kts 272°
2026-04-21 04:20 40.22136 -99.07750 35949 ft 400 kts 272°
2026-04-21 04:20 40.22100 -99.15025 35942 ft 400 kts 272°
2026-04-21 04:21 40.22058 -99.22300 35953 ft 400 kts 272°
2026-04-21 04:21 40.22011 -99.29528 35948 ft 400 kts 271°
2026-04-21 04:22 40.21955 -99.36813 35953 ft 400 kts 272°
2026-04-21 04:22 40.21898 -99.44096 35949 ft 400 kts 272°
2026-04-21 04:23 40.21840 -99.51378 35946 ft 400 kts 272°
2026-04-21 04:23 40.21767 -99.58617 35937 ft 400 kts 271°
2026-04-21 04:24 40.21690 -99.65893 35929 ft 400 kts 272°
2026-04-21 04:24 40.21612 -99.73167 35917 ft 400 kts 272°
2026-04-21 04:25 40.21539 -99.80440 35921 ft 400 kts 272°
2026-04-21 04:25 40.21456 -99.87709 35929 ft 400 kts 272°
2026-04-21 04:26 40.21366 -99.94934 35936 ft 400 kts 272°
2026-04-21 04:26 40.21275 -100.02208 35938 ft 400 kts 272°
2026-04-21 04:27 40.21179 -100.09484 35946 ft 400 kts 272°
2026-04-21 04:27 40.21080 -100.16754 35941 ft 400 kts 272°
2026-04-21 04:28 40.20974 -100.23973 35943 ft 400 kts 272°
2026-04-21 04:28 40.20860 -100.31254 35933 ft 400 kts 272°
2026-04-21 04:29 40.20744 -100.38530 35948 ft 400 kts 272°
2026-04-21 04:29 40.20621 -100.45760 35956 ft 400 kts 272°
2026-04-21 04:30 40.20498 -100.53041 35961 ft 400 kts 272°
2026-04-21 04:30 40.20359 -100.60322 35958 ft 401 kts 271°
2026-04-21 04:31 40.20076 -100.67612 35957 ft 402 kts 270°
2026-04-21 04:31 40.19711 -100.74913 35947 ft 402 kts 270°
2026-04-21 04:32 40.19358 -100.82168 35943 ft 402 kts 270°
2026-04-21 04:32 40.19016 -100.89474 35929 ft 403 kts 270°
2026-04-21 04:33 40.18675 -100.96785 35929 ft 403 kts 270°
2026-04-21 04:33 40.18327 -101.04103 35922 ft 403 kts 270°
2026-04-21 04:34 40.17974 -101.11375 35929 ft 403 kts 270°
2026-04-21 04:34 40.17618 -101.18698 35928 ft 404 kts 270°
2026-04-21 04:35 40.17256 -101.26022 35928 ft 404 kts 270°
2026-04-21 04:35 40.16885 -101.33352 35933 ft 404 kts 269°
2026-04-21 04:36 40.16513 -101.40632 35931 ft 404 kts 270°
2026-04-21 04:36 40.16139 -101.47964 35930 ft 404 kts 269°
2026-04-21 04:37 40.15753 -101.55299 35930 ft 405 kts 269°
2026-04-21 04:37 40.15369 -101.62641 35930 ft 405 kts 270°
2026-04-21 04:38 40.14986 -101.69932 35928 ft 405 kts 270°
2026-04-21 04:38 40.14586 -101.77282 35926 ft 406 kts 269°
2026-04-21 04:39 40.14182 -101.84636 35925 ft 406 kts 270°
2026-04-21 04:39 40.13777 -101.91998 35925 ft 406 kts 270°
2026-04-21 04:40 40.13370 -101.99317 35930 ft 407 kts 270°
2026-04-21 04:40 40.12954 -102.06693 35926 ft 407 kts 270°
2026-04-21 04:41 40.12530 -102.14070 35929 ft 408 kts 269°
2026-04-21 04:41 40.12104 -102.21406 35930 ft 408 kts 270°
2026-04-21 04:42 40.11673 -102.28798 35935 ft 408 kts 270°
2026-04-21 04:42 40.11235 -102.36189 35935 ft 408 kts 270°
2026-04-21 04:43 40.10796 -102.43587 35939 ft 408 kts 270°
2026-04-21 04:43 40.10348 -102.50982 35937 ft 409 kts 270°
2026-04-21 04:44 40.09899 -102.58333 35940 ft 409 kts 270°
2026-04-21 04:44 40.09445 -102.65733 35931 ft 409 kts 270°
2026-04-21 04:45 40.08981 -102.73127 35940 ft 409 kts 270°
2026-04-21 04:45 40.08519 -102.80528 35952 ft 409 kts 270°
2026-04-21 04:46 40.08049 -102.87878 35978 ft 409 kts 270°
2026-04-21 04:46 40.07571 -102.95274 35995 ft 409 kts 270°
2026-04-21 04:47 40.07092 -103.02662 36015 ft 408 kts 270°
2026-04-21 04:47 40.06613 -103.10003 36030 ft 408 kts 270°
2026-04-21 04:48 40.06126 -103.17390 36046 ft 409 kts 270°
2026-04-21 04:48 40.05636 -103.24776 36045 ft 408 kts 270°
2026-04-21 04:49 40.05137 -103.32157 36039 ft 408 kts 270°
2026-04-21 04:49 40.04630 -103.39537 36024 ft 408 kts 270°
2026-04-21 04:50 40.04127 -103.46857 36007 ft 407 kts 269°
2026-04-21 04:50 40.03613 -103.54217 35984 ft 407 kts 269°
2026-04-21 04:51 40.03101 -103.61568 35957 ft 407 kts 269°
2026-04-21 04:51 40.02585 -103.68915 35961 ft 406 kts 269°
2026-04-21 04:52 40.02067 -103.76205 35961 ft 406 kts 269°
2026-04-21 04:52 40.01539 -103.83535 35958 ft 406 kts 269°
2026-04-21 04:53 40.01006 -103.90872 35958 ft 406 kts 269°
2026-04-21 04:53 40.00479 -103.98194 35946 ft 406 kts 269°
2026-04-21 04:54 39.99944 -104.05471 35945 ft 406 kts 269°
2026-04-21 04:54 39.99393 -104.12789 35946 ft 405 kts 269°
2026-04-21 04:55 39.98838 -104.20093 35968 ft 405 kts 269°
2026-04-21 04:55 39.98302 -104.27226 35986 ft 405 kts 268°
2026-04-21 04:56 39.97750 -104.34476 36020 ft 405 kts 268°
2026-04-21 04:56 39.97187 -104.41775 36043 ft 405 kts 268°
2026-04-21 04:57 39.96615 -104.49076 36051 ft 405 kts 268°
2026-04-21 04:57 39.96044 -104.56376 36083 ft 405 kts 268°
2026-04-21 04:58 39.95470 -104.63632 36101 ft 405 kts 268°
2026-04-21 04:58 39.94887 -104.70929 36107 ft 405 kts 268°
2026-04-21 04:59 39.94307 -104.78232 36099 ft 405 kts 268°
2026-04-21 04:59 39.93717 -104.85523 36078 ft 405 kts 268°
2026-04-21 05:00 39.93126 -104.92766 36090 ft 405 kts 268°
2026-04-21 05:00 39.92227 -105.03696 36142 ft 404 kts 267°
2026-04-21 05:01 39.91617 -105.10970 36141 ft 404 kts 267°
2026-04-21 05:01 39.91008 -105.18241 36138 ft 404 kts 267°
2026-04-21 05:02 39.90397 -105.25461 36128 ft 404 kts 267°
2026-04-21 05:02 39.89780 -105.32719 36091 ft 403 kts 267°
2026-04-21 05:03 39.89160 -105.39975 36072 ft 403 kts 266°
2026-04-21 05:03 39.88544 -105.47183 36065 ft 403 kts 266°
2026-04-21 05:04 39.87914 -105.54428 36059 ft 403 kts 266°
2026-04-21 05:04 39.87281 -105.61668 36097 ft 403 kts 266°
2026-04-21 05:05 39.86635 -105.68907 36154 ft 402 kts 266°
2026-04-21 05:05 39.85995 -105.76140 36184 ft 402 kts 266°
2026-04-21 05:06 39.85350 -105.83312 36200 ft 402 kts 266°
2026-04-21 05:06 39.84696 -105.90538 36200 ft 402 kts 266°
2026-04-21 05:07 39.84049 -105.97754 36190 ft 402 kts 266°
2026-04-21 05:07 39.83386 -106.04978 36170 ft 402 kts 265°
2026-04-21 05:08 39.82727 -106.12148 36137 ft 402 kts 265°
2026-04-21 05:08 39.82065 -106.19361 36108 ft 402 kts 265°
2026-04-21 05:09 39.81389 -106.26583 36092 ft 402 kts 265°
2026-04-21 05:09 39.80704 -106.33805 36085 ft 403 kts 265°
2026-04-21 05:10 39.80024 -106.40993 36091 ft 403 kts 265°
2026-04-21 05:10 39.79330 -106.48229 36088 ft 404 kts 265°
2026-04-21 05:11 39.78630 -106.55476 36108 ft 404 kts 264°
2026-04-21 05:11 39.77857 -106.62715 36130 ft 405 kts 264°
2026-04-21 05:12 39.77052 -106.69910 36156 ft 405 kts 264°
2026-04-21 05:12 39.76240 -106.77159 36177 ft 406 kts 263°
2026-04-21 05:13 39.75440 -106.84423 36196 ft 407 kts 263°
2026-04-21 05:13 39.74652 -106.91655 36206 ft 407 kts 263°
2026-04-21 05:14 39.73846 -106.98939 36205 ft 408 kts 263°
2026-04-21 05:14 39.73024 -107.06232 36185 ft 408 kts 263°
2026-04-21 05:15 39.72194 -107.13544 36166 ft 409 kts 263°
2026-04-21 05:15 39.71367 -107.20860 36142 ft 410 kts 263°
2026-04-21 05:16 39.70541 -107.28140 36114 ft 411 kts 263°
2026-04-21 05:16 39.69709 -107.35478 36077 ft 411 kts 263°
2026-04-21 05:17 39.68859 -107.42818 36077 ft 411 kts 262°
2026-04-21 05:17 39.67992 -107.50162 36079 ft 412 kts 262°
2026-04-21 05:18 39.67207 -107.56893 36091 ft 412 kts 262°
2026-04-21 05:18 39.66346 -107.64267 36203 ft 415 kts 262°
2026-04-21 05:19 39.65918 -107.67936 36385 ft 417 kts 262°
2026-04-21 05:19 39.65480 -107.71662 36652 ft 418 kts 262°
2026-04-21 05:19 39.65040 -107.75385 36958 ft 417 kts 262°
2026-04-21 05:19 39.64601 -107.79100 37264 ft 417 kts 262°
2026-04-21 05:20 39.64162 -107.82815 37552 ft 416 kts 262°
2026-04-21 05:20 39.63722 -107.86522 37853 ft 416 kts 262°
2026-04-21 05:20 39.63278 -107.90230 38073 ft 416 kts 262°
2026-04-21 05:20 39.62833 -107.93928 38106 ft 415 kts 261°
2026-04-21 05:21 39.61938 -108.01317 38080 ft 415 kts 261°
2026-04-21 05:21 39.61044 -108.08657 38045 ft 415 kts 261°
2026-04-21 05:22 39.60144 -108.16050 38014 ft 415 kts 261°
2026-04-21 05:22 39.59232 -108.23455 38007 ft 416 kts 261°
2026-04-21 05:23 39.58322 -108.30857 38000 ft 416 kts 261°
2026-04-21 05:23 39.57408 -108.38260 37999 ft 416 kts 261°
2026-04-21 05:24 39.56487 -108.45615 37905 ft 417 kts 262°
2026-04-21 05:24 39.55553 -108.53105 37996 ft 427 kts 262°
2026-04-21 05:25 39.54592 -108.60774 37985 ft 433 kts 262°
2026-04-21 05:25 39.53622 -108.68437 37982 ft 434 kts 261°
2026-04-21 05:26 39.52640 -108.76145 37977 ft 434 kts 261°
2026-04-21 05:26 39.51649 -108.83854 37974 ft 433 kts 261°
2026-04-21 05:27 39.50662 -108.91548 37974 ft 433 kts 261°
2026-04-21 05:27 39.49670 -108.99240 37978 ft 433 kts 261°
2026-04-21 05:28 39.48671 -109.06871 37980 ft 433 kts 261°
2026-04-21 05:28 39.47661 -109.14545 37979 ft 432 kts 261°
2026-04-21 05:29 39.46657 -109.22217 37981 ft 432 kts 261°
2026-04-21 05:29 39.45654 -109.29880 37979 ft 432 kts 261°
2026-04-21 05:30 39.44650 -109.37484 37989 ft 431 kts 261°
2026-04-21 05:30 39.43624 -109.45127 37992 ft 431 kts 260°
2026-04-21 05:31 39.42590 -109.52763 37994 ft 431 kts 260°
2026-04-21 05:31 39.41561 -109.60386 37999 ft 430 kts 260°
2026-04-21 05:32 39.40547 -109.67955 38001 ft 430 kts 260°
2026-04-21 05:32 39.39511 -109.75567 37997 ft 430 kts 260°
2026-04-21 05:33 39.38461 -109.83161 37989 ft 429 kts 259°
2026-04-21 05:33 39.37409 -109.90755 37998 ft 429 kts 259°
2026-04-21 05:34 39.36369 -109.98292 38000 ft 429 kts 260°
2026-04-21 05:34 39.35348 -110.05877 37998 ft 428 kts 260°
2026-04-21 05:35 39.34344 -110.13457 37991 ft 428 kts 259°
2026-04-21 05:35 39.33333 -110.21032 37991 ft 428 kts 259°
2026-04-21 05:36 39.32317 -110.28547 37989 ft 427 kts 259°
2026-04-21 05:36 39.31288 -110.36102 37990 ft 427 kts 259°
2026-04-21 05:37 39.30253 -110.43647 37987 ft 427 kts 259°
2026-04-21 05:37 39.29217 -110.51183 37986 ft 426 kts 259°
2026-04-21 05:38 39.28183 -110.58664 37987 ft 426 kts 259°
2026-04-21 05:38 39.27134 -110.66191 37990 ft 426 kts 258°
2026-04-21 05:39 39.26088 -110.73705 37991 ft 425 kts 258°
2026-04-21 05:39 39.25037 -110.81228 37992 ft 425 kts 258°
2026-04-21 05:40 39.23979 -110.88731 38001 ft 425 kts 258°
2026-04-21 05:40 39.22912 -110.96233 38007 ft 424 kts 258°
2026-04-21 05:41 39.21849 -111.03688 38012 ft 424 kts 258°
2026-04-21 05:41 39.20785 -111.11173 38015 ft 424 kts 258°
2026-04-21 05:42 39.19713 -111.18656 38024 ft 424 kts 258°
2026-04-21 05:42 39.18632 -111.26129 38026 ft 423 kts 258°
2026-04-21 05:43 39.17554 -111.33538 38024 ft 423 kts 257°